Starlink 5131

operational
NORAD ID: 53996 Int'l Des: 2022-125 Owner: SPXS Country: US Constellation: starlink
LEOCIRCULAR

关于 Starlink 5131

正在加载描述...

实时位置

正在加载3D地球...

即将过境

高度历史

Altitude vs Time

uPlot chart will show altitude changes over time

两行轨道根数

1 53996U 22125AJ 25308.62074772 .00001133 00000-0 89238-4 0 9999
2 53996 53.2172 55.4149 0001434 90.4260 269.6896 15.08841946170588
Epoch: Nov 4, 2025 • Age: 16 hours

当前状态

高度 557.0 km
速度 7.58 km/s
星下点 -47.79°S, 144.79°W
发射日期 Oct 5, 2022
运行时间 3 years
类型 internet

技术详情

分类 Payload
质量 305.00 kg
干质量 290.00 kg
总质量 305.00 kg
长度 0.20 m
直径 2.80 m
跨度 9.00 m
形状 Box + pan
制造商 SPXS
平台类型 Starlink
阶段状态 In Orbit
所有者/国家 SPXS/US

大型星座

Loading constellations...